[[{"header":{"parameterUnit":"m.s-1","parameterCategory":2,"la1":30.2991,"la2":30.254,"lo1":-89.0895,"lo2":-89.0444,"dy":0.0017,"dx":0.0017,"nx":28,"ny":28,"refTime":"2023-10-20T03:00:00:Z","depth":"0","parameterNumber":2,"parameterNumberName":"U-component_of_CURRENTS"},"data":[0,0,0,0,0,0,0,0,0,0,0,0,0,0,0,0,0,0,0,0,0,0,0,0,0,0,0,0,0,0,0,0,0,0,0,0,0,0,0,0,0,0,0,0,0,0,0,0,0,0,0,0,0,0,0,0,0,0,-0.2161,-0.2162,0,-0.2201,-0.2201,-0.2201,-0.2092,-0.209,-0.2087,-0.2085,-0.1992,-0.1992,-0.1992,0,0,0,0,0,0,0,0,0,0,0,0,0,-0.1923,-0.1928,-0.2161,-0.2162,-0.2164,-0.2201,-0.2201,-0.2201,-0.2093,-0.209,-0.2087,-0.2084,-0.1992,-0.1992,-0.1992,0,0,0,0,0,0,0,0,0,0,0,0,0,-0.1993,-0.1929,-0.2161,-0.2121,-0.2119,-0.2202,-0.2201,-0.2201,-0.2094,-0.209,-0.2086,-0.2082,-0.1992,-0.1992,-0.1992,-0.2067,0,0,-0.1991,-0.1991,0,0,0,0,0,0,0,0,-0.1989,-0.2,-0.2126,-0.2124,-0.2122,-0.2146,-0.2084,-0.2152,-0.2095,-0.2094,-0.2085,-0.2081,-0.204,-0.2036,-0.204,-0.2062,-0.2058,-0.1991,-0.1991,-0.1991,-0.1991,0,0,0,0,0,0,0,-0.1984,-0.1998,-0.2168,-0.2128,-0.2125,-0.2079,-0.2084,-0.2096,-0.2078,-0.2093,-0.2088,-0.2108,-0.2036,-0.2041,-0.2037,-0.2057,-0.1991,-0.1991,-0.1991,-0.1991,-0.2026,-0.2027,0,0,0,0,0,0,-0.2007,-0.1995,-0.2167,-0.217,-0.2055,-0.2087,-0.2093,-0.2135,-0.2081,-0.2073,-0.2111,-0.2103,-0.2043,-0.2038,-0.2034,-0.2046,-0.1991,-0.1991,-0.1991,-0.2025,-0.2026,-0.2027,0,0,0,0,0,0,-0.2002,-0.2023,-0.2165,-0.2088,-0.2104,-0.2097,-0.2144,-0.2138,-0.2137,-0.2098,-0.2084,-0.2117,-0.204,-0.2034,-0.2033,-0.2043,-0.1991,-0.1991,-0.2024,-0.2025,-0.2027,-0.2117,0,0,0,0,0,0,-0.1995,-0.2021,-0.2051,-0.2091,-0.211,-0.2217,-0.2148,-0.2141,-0.216,-0.2149,-0.2099,-0.2086,-0.2037,-0.2034,-0.2033,-0.2042,-0.199,-0.2022,-0.2024,-0.2026,-0.2113,-0.2122,-0.2129,0,0,0,0,0,-0.1987,-0.2048,-0.2052,-0.2073,-0.2154,-0.222,-0.2225,-0.2198,-0.2165,-0.2179,-0.2135,-0.2087,-0.2044,-0.2036,-0.2035,-0.2044,-0.2021,-0.2024,-0.2026,-0.2109,-0.212,-0.2129,0,0,0,0,0,0,-0.1948,-0.2045,-0.205,-0.2133,-0.2176,-0.2205,-0.2227,-0.2219,-0.2202,-0.2179,-0.2122,-0.2109,-0.2093,-0.2076,-0.2069,-0.2057,-0.2018,-0.2021,-0.2082,-0.2092,-0.21,-0.2124,-0.199,0,0,0,0,0,-0.1965,-0.2037,-0.2106,-0.2169,-0.2201,-0.2219,-0.2241,-0.2232,-0.2233,-0.222,-0.2185,-0.2144,-0.2111,-0.2107,-0.207,-0.2104,-0.2112,-0.2101,-0.211,-0.2117,-0.2134,-0.2198,-0.2215,-0.2035,-0.2035,-0.2035,0,0,-0.1964,-0.203,-0.2066,-0.2166,-0.2195,-0.2243,-0.2219,-0.2268,-0.2281,-0.2218,-0.2213,-0.217,-0.2121,-0.2117,-0.2112,-0.2105,-0.2166,-0.212,-0.2126,-0.214,-0.2202,-0.222,-0.2236,-0.2036,-0.2036,-0.2036,0,0,-0.2,-0.2066,-0.213,-0.2179,-0.2251,-0.2269,-0.2291,-0.233,-0.2318,-0.2336,-0.2266,-0.2252,-0.2219,-0.2189,-0.2167,-0.2219,-0.2193,-0.219,-0.2273,-0.2335,-0.2351,-0.2365,-0.2377,-0.2391,-0.2213,-0.2213,-0.2213,0,-0.1983,-0.208,-0.2153,-0.222,-0.226,-0.2285,-0.2338,-0.235,-0.2368,-0.239,-0.2334,-0.2314,-0.2253,-0.2277,-0.2255,-0.2238,-0.2255,-0.2239,-0.2349,-0.2363,-0.2376,-0.2385,-0.24,-0.2218,-0.2217,-0.2217,-0.2216,0,-0.2065,-0.2128,-0.2173,-0.2265,-0.2323,-0.2374,-0.2421,-0.2455,-0.2445,-0.2456,-0.2477,-0.2421,-0.2411,-0.2382,-0.2318,-0.238,-0.2353,-0.234,-0.2331,-0.2401,-0.2404,-0.2418,-0.2224,-0.2223,-0.2221,-0.222,0,0,-0.2023,-0.2195,-0.2197,-0.2252,-0.2347,-0.2406,-0.2464,-0.2538,-0.2595,-0.2585,-0.2652,-0.2577,-0.2563,-0.2538,-0.2483,-0.2527,-0.2588,-0.2471,-0.2472,-0.2493,-0.2703,-0.2461,-0.2453,-0.2607,-0.261,-0.2613,-0.266,0,-0.2037,-0.2164,-0.2252,-0.2342,-0.2402,-0.2479,-0.2544,-0.2617,-0.2656,-0.2724,-0.2709,-0.2719,-0.2619,-0.2612,-0.2642,-0.2595,-0.2634,-0.2575,-0.2621,-0.2622,-0.241,-0.2465,-0.23,-0.2309,-0.2674,-0.2676,-0.2678,0,-0.2047,-0.2141,-0.2238,-0.2401,-0.2441,-0.2497,-0.2642,-0.2709,-0.2821,-0.2854,-0.2903,-0.2885,-0.2902,-0.2815,-0.2833,-0.2803,-0.2754,-0.2733,-0.2734,-0.2492,-0.2408,-0.2301,-0.2321,-0.231,-0.2699,-0.2697,-0.2696,0,-0.1949,-0.2116,-0.2195,-0.2243,-0.243,-0.2496,-0.2591,-0.2733,-0.2817,-0.2933,-0.2985,-0.304,-0.3014,-0.3034,-0.2885,-0.2898,-0.2896,-0.292,-0.2677,-0.2659,-0.2515,-0.2476,-0.2538,-0.2969,-0.2969,-0.2969,-0.2969,0,-0.1907,-0.1958,-0.2156,-0.2193,-0.2311,-0.2463,-0.2598,-0.2703,-0.287,-0.2908,-0.3022,-0.3009,-0.3065,-0.303,-0.2966,-0.2806,-0.2954,-0.2695,-0.2664,-0.2532,-0.2496,-0.2471,-0.2507,-0.297,-0.297,-0.297,-0.2969,0,-0.1748,-0.1882,-0.1968,-0.2176,-0.2255,-0.2322,-0.2578,-0.2665,-0.2838,-0.289,-0.2914,-0.3007,-0.2922,-0.2938,-0.2915,-0.2836,-0.2697,-0.2667,-0.2459,-0.24,-0.2176,-0.2221,-0.224,-0.2185,-0.2495,-0.2489,-0.2484,0,-0.1677,-0.1704,-0.1905,-0.1959,-0.2041,-0.2205,-0.2309,-0.2577,-0.2643,-0.2788,-0.2752,-0.2771,-0.264,-0.2575,-0.2469,-0.239,-0.2434,-0.2213,-0.2203,-0.2134,-0.2169,-0.2223,-0.2184,-0.2066,-0.2059,-0.2052,-0.2047,0,-0.1503,-0.1555,-0.1629,-0.1755,-0.186,-0.2012,-0.2159,-0.2243,-0.245,-0.2492,-0.2415,-0.236,-0.2254,-0.2076,-0.2008,-0.1944,-0.2149,-0.2073,-0.2111,-0.1911,-0.1879,-0.1816,-0.2044,-0.1991,-0.1996,-0.2001,-0.2004,-0.2006,-0.1324,-0.132,-0.1415,-0.1523,-0.1643,-0.1738,-0.1798,-0.1911,-0.1984,-0.1973,-0.2004,-0.1856,-0.1799,-0.1663,-0.1601,-0.1508,-0.1656,-0.1519,-0.1605,-0.1686,-0.1552,-0.1588,-0.1412,-0.1414,-0.1416,-0.1418,-0.142,0,-0.1096,-0.1132,-0.1196,-0.1307,-0.1341,-0.1501,-0.163,-0.1624,-0.1567,-0.155,-0.146,-0.134,-0.1229,-0.1243,-0.117,-0.1108,-0.116,-0.1129,-0.1255,-0.1258,-0.1381,-0.1272,-0.0925,-0.0925,-0.0925,-0.0925,-0.0925,-0.0925,-0.0977,-0.0944,-0.1,-0.0988,-0.1061,-0.1072,-0.1108,-0.1078,-0.1068,-0.0922,-0.0851,-0.0804,-0.0927,-0.1085,-0.104,-0.0988,-0.1057,-0.0963,-0.1081,-0.1241,-0.1288,-0.1333,-0.1241,-0.0893,-0.0893,-0.0892,-0.0892,-0.0893]},{"header":{"parameterUnit":"m.s-1","parameterCategory":2,"la1":30.2991,"la2":30.254,"lo1":-89.0895,"lo2":-89.0444,"dy":0.0017,"dx":0.0017,"nx":28,"ny":28,"refTime":"2023-10-20T03:00:00:Z","depth":"0","parameterNumber":3,"parameterNumberName":"V-component_of_CURRENTS"},"data":[0,0,0,0,0,0,0,0,0,0,0,0,0,0,0,0,0,0,0,0,0,0,0,0,0,0,0,0,0,0,0,0,0,0,0,0,0,0,0,0,0,0,0,0,0,0,0,0,0,0,0,0,0,0,0,0,0,0,-0.0393,-0.0391,0,-0.023,-0.0228,-0.0226,-0.0148,-0.0148,-0.0148,-0.0148,0.0032,0.0037,0.0042,0,0,0,0,0,0,0,0,0,0,0,0,0,-0.0541,-0.0539,-0.0393,-0.0391,-0.0389,-0.023,-0.0228,-0.0226,-0.0148,-0.0148,-0.0148,-0.0149,0.0031,0.0037,0.0043,0,0,0,0,0,0,0,0,0,0,0,0,0,-0.0436,-0.0538,-0.0393,-0.0333,-0.0326,-0.0231,-0.0228,-0.0225,-0.0148,-0.0148,-0.0148,-0.0149,0.0029,0.0036,0.0044,0.0097,0,0,0.0067,0.007,0,0,0,0,0,0,0,0,-0.0442,-0.043,-0.0343,-0.0337,-0.0329,-0.0211,-0.0214,-0.0117,-0.0148,-0.0213,-0.0148,-0.0149,-0.0048,-0.0034,-0.0001,0.0105,0.0113,0.0067,0.0072,0.0075,0.0077,0,0,0,0,0,0,0,-0.0449,-0.0436,-0.0327,-0.0341,-0.0332,-0.0281,-0.0267,-0.0195,-0.0129,-0.0208,-0.0202,-0.0187,-0.0044,-0.0008,0.0004,0.0116,0.0067,0.0074,0.0078,0.0081,0.0327,0.0329,0,0,0,0,0,0,-0.0477,-0.0444,-0.0332,-0.0322,-0.0389,-0.0279,-0.0263,-0.0247,-0.013,-0.0113,-0.0187,-0.0184,-0.0021,-0.0005,0.0011,0.0104,0.0075,0.0082,0.0086,0.0325,0.0327,0.033,0,0,0,0,0,0,-0.0481,-0.0469,-0.0338,-0.0381,-0.0361,-0.0277,-0.0259,-0.0244,-0.0209,-0.0115,-0.0097,-0.0169,-0.0021,0.0,0.0088,0.011,0.0085,0.0092,0.0323,0.0326,0.0329,0.0275,0,0,0,0,0,0,-0.0486,-0.0471,-0.0471,-0.0383,-0.0359,-0.0285,-0.0258,-0.024,-0.02,-0.0195,-0.0093,-0.0077,-0.0019,0.0076,0.0095,0.012,0.0098,0.032,0.0324,0.0328,0.0275,0.0276,0.0278,0,0,0,0,0,-0.0492,-0.0495,-0.0472,-0.0458,-0.0361,-0.0285,-0.0268,-0.0208,-0.02,-0.0179,-0.0105,-0.008,0.0114,0.0084,0.0106,0.0133,0.0318,0.0323,0.0327,0.0274,0.0276,0.0278,0,0,0,0,0,0,-0.0563,-0.0484,-0.0458,-0.0437,-0.0367,-0.0273,-0.0255,-0.0213,-0.0138,-0.0133,-0.0054,-0.003,0.0054,0.0107,0.0072,0.0219,0.0221,0.023,0.0173,0.0175,0.0177,0.0138,0.0104,0,0,0,0,0,-0.0578,-0.0557,-0.047,-0.0453,-0.0426,-0.0342,-0.0307,-0.0257,-0.0181,-0.0149,-0.0071,0.0014,0.0093,0.014,0.0219,0.0299,0.0326,0.0334,0.0335,0.0336,0.0323,0.0385,0.039,0.0344,0.0344,0.0344,0,0,-0.0603,-0.0556,-0.0545,-0.0466,-0.0413,-0.0361,-0.0321,-0.0266,-0.0216,-0.014,-0.0053,0.002,0.0115,0.0206,0.0249,0.0251,0.0366,0.0342,0.0341,0.0327,0.039,0.0394,0.0397,0.0348,0.0347,0.0346,0,0,-0.0622,-0.0599,-0.0575,-0.0521,-0.0438,-0.0383,-0.0372,-0.0267,-0.022,-0.0125,-0.006,0.0028,0.0153,0.0231,0.0281,0.0341,0.0367,0.0368,0.0349,0.0409,0.0412,0.0415,0.0452,0.0459,0.0372,0.0372,0.0372,0,-0.0656,-0.0613,-0.0557,-0.0511,-0.0484,-0.04,-0.0368,-0.0295,-0.0169,-0.0136,-0.0105,0.0081,0.0167,0.0266,0.0294,0.0342,0.0365,0.0326,0.0406,0.041,0.0414,0.0451,0.0459,0.037,0.0371,0.0371,0.0371,0,-0.0638,-0.0608,-0.0596,-0.0516,-0.0476,-0.044,-0.0344,-0.0289,-0.0231,-0.0153,-0.0046,0.0081,0.0181,0.0236,0.0286,0.0364,0.0366,0.0391,0.0386,0.0414,0.0453,0.0462,0.0367,0.0368,0.0369,0.0369,0,0,-0.0708,-0.0607,-0.06,-0.0588,-0.0486,-0.0462,-0.0387,-0.0309,-0.0279,-0.0141,-0.0091,0.0074,0.0128,0.019,0.0274,0.0343,0.0405,0.0371,0.0375,0.0379,0.0513,0.0529,0.054,0.0431,0.0433,0.0434,0.0526,0,-0.0716,-0.0661,-0.0602,-0.0576,-0.0555,-0.0485,-0.0444,-0.036,-0.0267,-0.0188,-0.0056,0.0034,0.0116,0.0159,0.0244,0.0367,0.0427,0.0376,0.051,0.0514,0.0502,0.0551,0.0587,0.0673,0.0535,0.0536,0.0538,0,-0.0704,-0.0684,-0.0653,-0.064,-0.0632,-0.0604,-0.0564,-0.0502,-0.0368,-0.0301,-0.0179,-0.0072,0.0069,0.0123,0.0329,0.0285,0.0385,0.0478,0.0484,0.0519,0.0547,0.0629,0.0695,0.0837,0.0552,0.0551,0.055,0,-0.0773,-0.0729,-0.0727,-0.0709,-0.0661,-0.0664,-0.0646,-0.0538,-0.0502,-0.036,-0.0301,-0.014,-0.0035,0.0105,0.032,0.0314,0.0529,0.0548,0.0653,0.0654,0.0723,0.0727,0.0919,0.0668,0.0668,0.0667,0.0667,0,-0.0793,-0.0795,-0.077,-0.0763,-0.082,-0.0753,-0.0763,-0.0708,-0.0612,-0.0541,-0.0367,-0.0261,-0.0034,0.0134,0.0288,0.0506,0.0508,0.0652,0.0687,0.0707,0.0709,0.0866,0.0917,0.0671,0.067,0.0669,0.0669,0,-0.0814,-0.0789,-0.0807,-0.081,-0.0834,-0.0865,-0.0866,-0.0849,-0.0741,-0.0633,-0.0592,-0.0353,-0.0118,0.0102,0.0356,0.0483,0.076,0.0738,0.0735,0.0767,0.0976,0.102,0.1201,0.1296,0.0856,0.0857,0.0858,0,-0.0802,-0.0803,-0.0856,-0.0903,-0.0905,-0.0949,-0.0975,-0.0924,-0.0879,-0.0661,-0.0608,-0.0362,-0.0138,0.0223,0.0468,0.0718,0.0835,0.0876,0.0882,0.0999,0.1076,0.1089,0.1158,0.0956,0.0957,0.0959,0.096,0,-0.0792,-0.0808,-0.0829,-0.094,-0.0999,-0.1054,-0.1067,-0.1069,-0.0944,-0.0811,-0.0579,-0.0387,-0.0008,0.0326,0.0626,0.077,0.0975,0.0909,0.1055,0.1189,0.1194,0.1297,0.0862,0.0971,0.097,0.0969,0.0969,0.0968,-0.0784,-0.0819,-0.0865,-0.0976,-0.1049,-0.1105,-0.1135,-0.1081,-0.0999,-0.0731,-0.0561,-0.0135,0.0241,0.069,0.084,0.1146,0.1101,0.1242,0.129,0.1295,0.1383,0.0951,0.1082,0.1082,0.1081,0.1081,0.1081,0,-0.0756,-0.0808,-0.0906,-0.1017,-0.1087,-0.1127,-0.1157,-0.1118,-0.0981,-0.0623,-0.0347,0.0326,0.0678,0.103,0.1383,0.1534,0.1574,0.1604,0.1659,0.1717,0.1373,0.1374,0.1545,0.1545,0.1545,0.1544,0.1544,0.1544,-0.0746,-0.0812,-0.0883,-0.1014,-0.1086,-0.1152,-0.1161,-0.1051,-0.0815,-0.0253,0.0288,0.0695,0.1161,0.1571,0.1881,0.1903,0.2068,0.2014,0.2114,0.1899,0.1869,0.1841,0.1858,0.2127,0.2128,0.2455,0.2459,0.2461]}],[{"header":{"parameterUnit":"m.s-1","parameterCategory":2,"la1":30.2991,"la2":30.254,"lo1":-89.0895,"lo2":-89.0444,"dy":0.0017,"dx":0.0017,"nx":28,"ny":28,"refTime":"2023-10-20T03:00:00:Z","depth":"2","parameterNumber":2,"parameterNumberName":"U-component_of_CURRENTS"},"data":[0,0,0,0,0,0,0,0,0,0,0,0,0,0,0,0,0,0,0,0,0,0,0,0,0,0,0,0,0,0,0,0,0,0,0,0,0,0,0,0,0,0,0,0,0,0,0,0,0,0,0,0,0,0,0,0,0,0,-0.2857,-0.2857,0,-0.2809,-0.2808,-0.2807,-0.2737,-0.2736,-0.2735,-0.2734,-0.2671,-0.267,-0.2669,0,0,0,0,0,0,0,0,0,0,0,0,0,-0.2891,-0.289,-0.2857,-0.2857,-0.2856,-0.2809,-0.2808,-0.2807,-0.2737,-0.2736,-0.2735,-0.2734,-0.2671,-0.267,-0.2669,0,0,0,0,0,0,0,0,0,0,0,0,0,-0.2859,-0.289,-0.2857,-0.2819,-0.2815,-0.2809,-0.2808,-0.2807,-0.2737,-0.2736,-0.2735,-0.2733,-0.2671,-0.267,-0.2669,-0.2687,0,0,-0.2665,-0.2664,0,0,0,0,0,0,0,0,-0.2861,-0.2858,-0.2824,-0.2821,-0.2817,-0.2781,-0.2797,-0.2767,-0.2738,-0.2763,-0.2734,-0.2733,-0.271,-0.2705,-0.2694,-0.2684,-0.2681,-0.2665,-0.2664,-0.2663,-0.2663,0,0,0,0,0,0,0,-0.2864,-0.286,-0.2834,-0.2824,-0.282,-0.2805,-0.2799,-0.2791,-0.2741,-0.276,-0.2756,-0.2757,-0.2707,-0.2695,-0.2692,-0.268,-0.2665,-0.2663,-0.2663,-0.2662,-0.2656,-0.2656,0,0,0,0,0,0,-0.2879,-0.2862,-0.2836,-0.2833,-0.2841,-0.2806,-0.2799,-0.2791,-0.2741,-0.2733,-0.2759,-0.2754,-0.2698,-0.2693,-0.2689,-0.27,-0.2663,-0.2662,-0.2661,-0.2655,-0.2656,-0.2657,0,0,0,0,0,0,-0.2879,-0.2876,-0.2837,-0.285,-0.2844,-0.2807,-0.2799,-0.2791,-0.2768,-0.2741,-0.2732,-0.2744,-0.2697,-0.2691,-0.2675,-0.2697,-0.2661,-0.266,-0.2654,-0.2655,-0.2656,-0.2727,0,0,0,0,0,0,-0.288,-0.2877,-0.2866,-0.2851,-0.2844,-0.2844,-0.28,-0.2791,-0.2774,-0.2767,-0.2726,-0.2719,-0.2695,-0.2677,-0.2674,-0.2695,-0.2659,-0.2654,-0.2655,-0.2656,-0.2724,-0.273,-0.2736,0,0,0,0,0,-0.2882,-0.2878,-0.2866,-0.2862,-0.2834,-0.2845,-0.2841,-0.2807,-0.2774,-0.2778,-0.2739,-0.2719,-0.2682,-0.2676,-0.2672,-0.2694,-0.2653,-0.2654,-0.2656,-0.2721,-0.2729,-0.2736,0,0,0,0,0,0,-0.2886,-0.2871,-0.2857,-0.2847,-0.2852,-0.2835,-0.2825,-0.2809,-0.278,-0.2762,-0.2726,-0.2718,-0.2712,-0.2692,-0.2687,-0.2694,-0.2665,-0.2666,-0.2717,-0.2724,-0.273,-0.2756,-0.2658,0,0,0,0,0,-0.2886,-0.2871,-0.2873,-0.2863,-0.2865,-0.2845,-0.2838,-0.2825,-0.2804,-0.2788,-0.2757,-0.2727,-0.2718,-0.2711,-0.2694,-0.2701,-0.2681,-0.2711,-0.2717,-0.2722,-0.2741,-0.2748,-0.2757,-0.2661,-0.2661,-0.2661,0,0,-0.2879,-0.2872,-0.286,-0.2862,-0.2851,-0.2882,-0.2836,-0.2834,-0.2855,-0.2788,-0.2782,-0.2745,-0.2723,-0.2726,-0.2723,-0.2711,-0.273,-0.2724,-0.2729,-0.2745,-0.2751,-0.2761,-0.2769,-0.2662,-0.2662,-0.2662,0,0,-0.289,-0.2861,-0.2868,-0.2886,-0.289,-0.2888,-0.2893,-0.288,-0.2865,-0.2862,-0.2822,-0.2796,-0.2773,-0.2766,-0.2761,-0.2792,-0.276,-0.2785,-0.2841,-0.2849,-0.2857,-0.2865,-0.2816,-0.2819,-0.2791,-0.2791,-0.2791,0,-0.2891,-0.2897,-0.2875,-0.2912,-0.2923,-0.2901,-0.2934,-0.2937,-0.2918,-0.2913,-0.2867,-0.2834,-0.2798,-0.2829,-0.2829,-0.2808,-0.279,-0.2817,-0.2859,-0.2866,-0.2872,-0.2821,-0.2823,-0.2795,-0.2794,-0.2794,-0.2794,0,-0.2916,-0.2939,-0.2948,-0.2982,-0.2996,-0.3016,-0.3032,-0.3034,-0.2998,-0.2993,-0.2985,-0.2933,-0.291,-0.29,-0.2869,-0.2907,-0.2869,-0.2864,-0.2845,-0.2886,-0.2828,-0.2829,-0.28,-0.2799,-0.2798,-0.2797,0,0,-0.2868,-0.2953,-0.2948,-0.2989,-0.3031,-0.3042,-0.3089,-0.3116,-0.3126,-0.3105,-0.3106,-0.3085,-0.3036,-0.3027,-0.2988,-0.2995,-0.2991,-0.2952,-0.295,-0.2911,-0.2974,-0.2764,-0.2744,-0.3002,-0.3004,-0.3005,-0.2902,0,-0.2893,-0.2967,-0.3,-0.3071,-0.3112,-0.3132,-0.3175,-0.3197,-0.318,-0.3177,-0.3152,-0.3134,-0.3097,-0.3063,-0.3072,-0.3018,-0.3004,-0.3017,-0.2934,-0.2931,-0.2747,-0.2742,-0.2554,-0.2432,-0.2903,-0.2903,-0.2903,0,-0.2902,-0.2947,-0.3023,-0.3116,-0.3129,-0.3177,-0.3205,-0.3248,-0.3272,-0.3251,-0.3251,-0.3211,-0.3215,-0.3157,-0.3127,-0.3141,-0.3061,-0.3017,-0.3012,-0.28,-0.2724,-0.2473,-0.2416,-0.2904,-0.2904,-0.2904,-0.2903,0,-0.2856,-0.296,-0.3011,-0.3045,-0.3149,-0.318,-0.3223,-0.3261,-0.3239,-0.33,-0.3237,-0.3293,-0.3203,-0.3228,-0.3082,-0.3127,-0.3002,-0.3051,-0.279,-0.2772,-0.2585,-0.2548,-0.3018,-0.3018,-0.3018,-0.3019,-0.3019,0,-0.2872,-0.2912,-0.2998,-0.3036,-0.3082,-0.3162,-0.3194,-0.3248,-0.3238,-0.316,-0.3258,-0.3148,-0.3207,-0.3108,-0.3096,-0.2897,-0.3004,-0.2789,-0.2738,-0.2595,-0.2562,-0.2962,-0.2957,-0.3015,-0.3016,-0.3016,-0.3017,0,-0.2826,-0.29,-0.2969,-0.3059,-0.3081,-0.3113,-0.3141,-0.3095,-0.3157,-0.3043,-0.3037,-0.2995,-0.2894,-0.2893,-0.284,-0.2792,-0.2724,-0.2608,-0.2396,-0.2321,-0.2504,-0.2505,-0.2399,-0.2391,-0.2384,-0.2378,-0.2374,0,-0.2819,-0.2851,-0.2934,-0.2929,-0.2973,-0.3017,-0.2973,-0.3045,-0.2923,-0.2889,-0.2732,-0.2661,-0.2507,-0.2383,-0.2329,-0.2275,-0.2417,-0.205,-0.2114,-0.2483,-0.2445,-0.2456,-0.2465,-0.1888,-0.188,-0.1873,-0.1867,0,-0.2765,-0.2787,-0.2791,-0.278,-0.2759,-0.2732,-0.2661,-0.256,-0.2545,-0.2481,-0.2292,-0.2232,-0.2067,-0.1906,-0.1815,-0.1786,-0.2088,-0.1901,-0.2343,-0.2057,-0.1988,-0.1955,-0.1983,-0.1806,-0.1812,-0.1817,-0.182,-0.1823,-0.2657,-0.2634,-0.2597,-0.2571,-0.2515,-0.2359,-0.226,-0.2141,-0.1998,-0.1816,-0.1847,-0.1724,-0.1714,-0.1477,-0.1403,-0.1385,-0.1555,-0.1572,-0.16,-0.1634,-0.1576,-0.1497,-0.121,-0.1212,-0.1215,-0.1217,-0.1218,0,-0.2476,-0.2444,-0.2374,-0.2287,-0.2086,-0.2163,-0.1934,-0.1787,-0.1569,-0.148,-0.1376,-0.1211,-0.1077,-0.1112,-0.0964,-0.0952,-0.1034,-0.0949,-0.108,-0.1136,-0.1188,-0.1118,-0.0625,-0.0623,-0.0622,-0.0621,0,0,-0.2376,-0.2221,-0.2171,-0.1846,-0.1771,-0.1474,-0.1328,-0.1206,-0.1091,-0.0952,-0.0896,-0.0944,-0.1001,-0.079,-0.076,-0.066,-0.0899,-0.0625,-0.1089,-0.1292,-0.1342,-0.1517,-0.1465,0,0,0,0,0]},{"header":{"parameterUnit":"m.s-1","parameterCategory":2,"la1":30.2991,"la2":30.254,"lo1":-89.0895,"lo2":-89.0444,"dy":0.0017,"dx":0.0017,"nx":28,"ny":28,"refTime":"2023-10-20T03:00:00:Z","depth":"2","parameterNumber":3,"parameterNumberName":"V-component_of_CURRENTS"},"data":[0,0,0,0,0,0,0,0,0,0,0,0,0,0,0,0,0,0,0,0,0,0,0,0,0,0,0,0,0,0,0,0,0,0,0,0,0,0,0,0,0,0,0,0,0,0,0,0,0,0,0,0,0,0,0,0,0,0,0.0097,0.0098,0,0.0219,0.0221,0.0222,0.0256,0.0256,0.0255,0.0255,0.031,0.0312,0.0314,0,0,0,0,0,0,0,0,0,0,0,0,0,-0.0063,-0.0061,0.0097,0.0098,0.01,0.0219,0.0221,0.0222,0.0256,0.0256,0.0255,0.0255,0.031,0.0312,0.0314,0,0,0,0,0,0,0,0,0,0,0,0,0,0.0025,-0.006,0.0096,0.0133,0.0138,0.0219,0.0221,0.0223,0.0256,0.0256,0.0255,0.0254,0.0309,0.0312,0.0314,0.0346,0,0,0.0323,0.0324,0,0,0,0,0,0,0,0,0.002,0.003,0.0126,0.0131,0.0136,0.0224,0.0185,0.0261,0.0256,0.0209,0.0255,0.0254,0.0277,0.0283,0.0305,0.0349,0.0351,0.0323,0.0325,0.0326,0.0327,0,0,0,0,0,0,0,0.0014,0.0026,0.0143,0.0128,0.0134,0.0159,0.017,0.02,0.0242,0.0213,0.0216,0.0234,0.0279,0.0302,0.0306,0.0352,0.0323,0.0326,0.0328,0.0329,0.0374,0.0374,0,0,0,0,0,0,0.0002,0.002,0.0139,0.0147,0.0078,0.0163,0.0175,0.0194,0.0244,0.0252,0.0235,0.0235,0.0297,0.0303,0.0308,0.0308,0.0326,0.0329,0.0331,0.0375,0.0374,0.0374,0,0,0,0,0,0,-0.0002,0.0012,0.0134,0.0088,0.0105,0.0166,0.0188,0.0197,0.0204,0.0261,0.0267,0.023,0.0297,0.0304,0.0316,0.0312,0.033,0.0333,0.0375,0.0375,0.0374,0.0333,0,0,0,0,0,0,-0.0007,0.001,0.0001,0.0087,0.0108,0.0167,0.0189,0.02,0.0219,0.022,0.026,0.0265,0.0297,0.0311,0.0319,0.0316,0.0335,0.0376,0.0375,0.0374,0.0335,0.0331,0.0328,0,0,0,0,0,-0.0013,-0.0022,0.0,0.0014,0.01,0.0167,0.0179,0.0219,0.0219,0.0221,0.0242,0.0263,0.031,0.0313,0.0322,0.032,0.0376,0.0375,0.0374,0.0337,0.0332,0.0328,0,0,0,0,0,0,-0.0099,-0.0016,0.0009,0.0024,0.0086,0.0174,0.0169,0.0206,0.0228,0.0213,0.0261,0.0268,0.0271,0.0301,0.0303,0.0328,0.0345,0.0346,0.0314,0.031,0.0306,0.0314,0.0338,0,0,0,0,0,-0.0119,-0.011,-0.0014,-0.0008,0.0016,0.0089,0.0113,0.0149,0.0192,0.02,0.0229,0.0254,0.0279,0.0295,0.0314,0.0337,0.0382,0.0339,0.0335,0.0332,0.0344,0.0423,0.0428,0.037,0.037,0.037,0,0,-0.0154,-0.0107,-0.0104,-0.0028,0.0013,0.0051,0.0099,0.0129,0.0155,0.0201,0.0209,0.0233,0.0276,0.0294,0.03,0.0318,0.0364,0.0331,0.0328,0.0341,0.0422,0.0428,0.0434,0.0369,0.0369,0.0369,0,0,-0.0209,-0.0176,-0.0181,-0.0128,-0.0061,-0.0005,-0.0001,0.0078,0.01,0.0124,0.016,0.0191,0.0215,0.0271,0.0297,0.0287,0.033,0.0274,0.028,0.0356,0.0362,0.0368,0.0402,0.0411,0.0287,0.0287,0.0287,0,-0.0259,-0.0235,-0.0174,-0.015,-0.0116,-0.0036,-0.0018,0.0027,0.0096,0.0121,0.0107,0.0184,0.0213,0.0283,0.0274,0.0283,0.0313,0.0294,0.0354,0.0361,0.0368,0.0401,0.0412,0.0285,0.0285,0.0285,0.0286,0,-0.0296,-0.0276,-0.0277,-0.0219,-0.0175,-0.0152,-0.0063,-0.0035,-0.0011,0.0047,0.0092,0.0147,0.0203,0.0214,0.0238,0.0307,0.0305,0.0329,0.0369,0.0372,0.0405,0.0418,0.0282,0.0283,0.0283,0.0284,0,0,-0.0411,-0.0322,-0.0326,-0.0303,-0.0208,-0.0177,-0.0133,-0.0054,-0.0028,0.0029,0.0075,0.0134,0.0174,0.0207,0.0258,0.0332,0.0393,0.0344,0.0349,0.0383,0.0527,0.0475,0.0483,0.0425,0.0428,0.043,0.052,0,-0.0461,-0.0444,-0.0374,-0.0357,-0.0336,-0.0236,-0.0199,-0.012,-0.0062,-0.0002,0.0094,0.0137,0.0172,0.0191,0.0274,0.0362,0.0428,0.0364,0.0515,0.0519,0.0479,0.0498,0.0474,0.0549,0.0532,0.0534,0.0536,0,-0.0522,-0.0497,-0.0493,-0.0412,-0.0396,-0.0376,-0.0296,-0.0245,-0.0119,-0.0073,0.0021,0.0094,0.0214,0.0229,0.0411,0.0363,0.0436,0.0507,0.0513,0.0494,0.0492,0.0549,0.0572,0.0557,0.0556,0.0554,0.0553,0,-0.064,-0.0579,-0.0587,-0.0559,-0.0458,-0.0449,-0.0402,-0.0288,-0.0244,-0.0117,-0.0078,0.0082,0.0135,0.0285,0.0405,0.0417,0.0582,0.0627,0.0654,0.065,0.0677,0.067,0.0756,0.0755,0.0755,0.0755,0.0755,0,-0.0712,-0.0721,-0.0654,-0.0656,-0.0669,-0.0561,-0.055,-0.0472,-0.0354,-0.0299,-0.0139,-0.0069,0.0148,0.0266,0.0401,0.054,0.058,0.0661,0.0682,0.0654,0.0645,0.0696,0.0688,0.0758,0.0758,0.0757,0.0756,0,-0.0834,-0.0789,-0.08,-0.0736,-0.0727,-0.0748,-0.0665,-0.0625,-0.0516,-0.0436,-0.0399,-0.0189,-0.0018,0.0172,0.0399,0.0502,0.0664,0.0694,0.0614,0.0625,0.069,0.0679,0.079,0.0789,0.0788,0.0788,0.0787,0,-0.089,-0.091,-0.0895,-0.0911,-0.0895,-0.0892,-0.0864,-0.0742,-0.0681,-0.0509,-0.0469,-0.0293,-0.0131,0.016,0.0375,0.0606,0.0623,0.0679,0.0722,0.0691,0.0701,0.069,0.068,0.0736,0.0735,0.0735,0.0734,0,-0.0991,-0.1002,-0.1,-0.1033,-0.104,-0.1016,-0.097,-0.0948,-0.0781,-0.0689,-0.0522,-0.038,-0.0101,0.0169,0.0406,0.0535,0.0652,0.067,0.0694,0.0707,0.0642,0.065,0.0642,0.0728,0.0728,0.0729,0.0729,0.0729,-0.1075,-0.1117,-0.1113,-0.114,-0.1129,-0.1094,-0.107,-0.0988,-0.0891,-0.0695,-0.0569,-0.0317,-0.0088,0.0307,0.0467,0.0608,0.0638,0.0704,0.0707,0.0711,0.0665,0.06,0.0667,0.0668,0.0668,0.0668,0.0668,0,-0.1137,-0.1179,-0.1203,-0.1198,-0.1155,-0.1143,-0.1078,-0.101,-0.0897,-0.0713,-0.0517,-0.0207,0.0078,0.0299,0.0535,0.0673,0.0687,0.0677,0.0693,0.0697,0.0702,0.0657,0.0657,0.0657,0.0658,0.0658,0,0,-0.1178,-0.1213,-0.1211,-0.1183,-0.1172,-0.1099,-0.1059,-0.0977,-0.0842,-0.0634,-0.0431,-0.0155,0.0107,0.0283,0.0446,0.0559,0.0583,0.0553,0.0546,0.0546,0.0549,0.0698,0.063,0,0,0,0,0]}],[{"header":{"parameterUnit":"m.s-1","parameterCategory":2,"la1":30.2991,"la2":30.254,"lo1":-89.0895,"lo2":-89.0444,"dy":0.0017,"dx":0.0017,"nx":28,"ny":28,"refTime":"2023-10-20T03:00:00:Z","depth":"4","parameterNumber":2,"parameterNumberName":"U-component_of_CURRENTS"},"data":[0,0,0,0,0,0,0,0,0,0,0,0,0,0,0,0,0,0,0,0,0,0,0,0,0,0,0,0,0,0,0,0,0,0,0,0,0,0,0,0,0,0,0,0,0,0,0,0,0,0,0,0,0,0,0,0,0,0,-0.1067,-0.1067,0,-0.1092,-0.1092,-0.1093,-0.1164,-0.1166,-0.1167,-0.1169,-0.1262,-0.1263,-0.1264,0,0,0,0,0,0,0,0,0,0,0,0,0,-0.0987,-0.0988,-0.1067,-0.1067,-0.1068,-0.1092,-0.1092,-0.1093,-0.1164,-0.1166,-0.1168,-0.117,-0.1262,-0.1263,-0.1264,0,0,0,0,0,0,0,0,0,0,0,0,0,-0.1016,-0.0989,-0.1067,-0.1108,-0.1112,-0.1092,-0.1092,-0.1093,-0.1163,-0.1166,-0.1168,-0.1171,-0.1261,-0.1263,-0.1264,-0.1221,0,0,-0.1268,-0.1269,0,0,0,0,0,0,0,0,-0.1015,-0.1019,-0.1101,-0.1105,-0.1109,-0.1129,-0.1098,-0.1139,-0.1163,-0.1142,-0.1169,-0.1172,-0.1223,-0.1228,-0.1223,-0.1225,-0.1229,-0.1268,-0.1269,-0.127,-0.127,0,0,0,0,0,0,0,-0.1013,-0.1018,-0.1075,-0.1101,-0.1106,-0.1093,-0.1101,-0.1106,-0.1168,-0.1144,-0.1149,-0.1154,-0.1226,-0.1222,-0.1226,-0.123,-0.1268,-0.1269,-0.127,-0.1271,-0.1409,-0.1412,0,0,0,0,0,0,-0.1015,-0.1016,-0.1074,-0.1076,-0.1069,-0.1093,-0.1101,-0.1119,-0.1166,-0.1176,-0.1152,-0.1158,-0.1218,-0.1225,-0.123,-0.1324,-0.127,-0.1271,-0.1272,-0.1406,-0.141,-0.1413,0,0,0,0,0,0,-0.1014,-0.1021,-0.1073,-0.1047,-0.1054,-0.1092,-0.1111,-0.1118,-0.1157,-0.1172,-0.1184,-0.1189,-0.1221,-0.1228,-0.128,-0.1323,-0.1271,-0.1273,-0.1403,-0.1407,-0.1411,-0.1421,0,0,0,0,0,0,-0.1011,-0.102,-0.1045,-0.1048,-0.1055,-0.1087,-0.1109,-0.1117,-0.1154,-0.1163,-0.1206,-0.1215,-0.1223,-0.1278,-0.1282,-0.1324,-0.1274,-0.1399,-0.1405,-0.141,-0.1417,-0.1425,-0.1432,0,0,0,0,0,-0.1009,-0.1022,-0.1046,-0.1054,-0.1085,-0.1087,-0.109,-0.1123,-0.1154,-0.1169,-0.1212,-0.1216,-0.1317,-0.128,-0.1284,-0.1328,-0.1397,-0.1403,-0.141,-0.1414,-0.1424,-0.1432,0,0,0,0,0,0,-0.1002,-0.1031,-0.1057,-0.1083,-0.1099,-0.1101,-0.1117,-0.114,-0.1181,-0.1186,-0.1227,-0.1238,-0.1293,-0.1319,-0.1279,-0.1392,-0.1367,-0.1375,-0.137,-0.1379,-0.1386,-0.1402,-0.1275,0,0,0,0,0,-0.1011,-0.1031,-0.1054,-0.1076,-0.1089,-0.111,-0.1122,-0.1127,-0.1155,-0.1177,-0.1253,-0.1304,-0.1313,-0.1355,-0.1371,-0.1428,-0.1419,-0.1472,-0.1479,-0.1485,-0.1506,-0.1484,-0.1489,-0.1434,-0.1434,-0.1434,0,0,-0.0993,-0.1031,-0.103,-0.1076,-0.1093,-0.112,-0.1125,-0.1126,-0.1166,-0.1176,-0.1303,-0.1314,-0.1327,-0.1384,-0.1417,-0.1422,-0.1504,-0.1493,-0.1497,-0.1516,-0.1491,-0.1495,-0.1499,-0.1439,-0.1438,-0.1437,0,0,-0.0987,-0.1026,-0.1046,-0.1071,-0.11,-0.1116,-0.113,-0.1178,-0.1221,-0.1293,-0.131,-0.1358,-0.1445,-0.1459,-0.1463,-0.1529,-0.1518,-0.1561,-0.1635,-0.1612,-0.1615,-0.1618,-0.1627,-0.163,-0.1594,-0.1594,-0.1594,0,-0.0997,-0.1024,-0.1048,-0.1091,-0.112,-0.1132,-0.116,-0.1189,-0.1266,-0.1309,-0.1348,-0.1455,-0.1472,-0.1495,-0.1541,-0.1541,-0.1542,-0.1584,-0.1616,-0.1618,-0.162,-0.1629,-0.1632,-0.1595,-0.1595,-0.1595,-0.1595,0,-0.0998,-0.1039,-0.1052,-0.113,-0.1161,-0.1167,-0.1215,-0.1281,-0.1352,-0.1395,-0.1472,-0.1499,-0.1575,-0.1589,-0.159,-0.1631,-0.1631,-0.1592,-0.1575,-0.1625,-0.1633,-0.1636,-0.1597,-0.1597,-0.1596,-0.1596,0,0,-0.0985,-0.1047,-0.1059,-0.1103,-0.1174,-0.1195,-0.127,-0.1336,-0.1392,-0.1486,-0.1577,-0.1614,-0.1652,-0.1664,-0.1669,-0.1682,-0.1703,-0.1678,-0.1676,-0.166,-0.1686,-0.1573,-0.1565,-0.1663,-0.1664,-0.1664,-0.1689,0,-0.0998,-0.1074,-0.1103,-0.1174,-0.1214,-0.1262,-0.1341,-0.1396,-0.1469,-0.1575,-0.1586,-0.1661,-0.1667,-0.1708,-0.1717,-0.1695,-0.1712,-0.1703,-0.1668,-0.1668,-0.1535,-0.1564,-0.1666,-0.1691,-0.1691,-0.1692,-0.1692,0,-0.0999,-0.1059,-0.1127,-0.1215,-0.1239,-0.1288,-0.1404,-0.1469,-0.1566,-0.1625,-0.1692,-0.1724,-0.1778,-0.1763,-0.1764,-0.1762,-0.1751,-0.1728,-0.1726,-0.162,-0.1559,-0.1633,-0.1697,-0.1696,-0.1696,-0.1696,-0.1695,0,-0.0984,-0.1073,-0.1136,-0.1166,-0.127,-0.1319,-0.1389,-0.1491,-0.154,-0.167,-0.1713,-0.1776,-0.1802,-0.18,-0.1796,-0.179,-0.1773,-0.1739,-0.1623,-0.1616,-0.1703,-0.17,-0.1731,-0.1731,-0.1731,-0.1731,-0.1731,0,-0.0989,-0.1033,-0.1132,-0.1166,-0.1234,-0.1326,-0.1398,-0.1484,-0.158,-0.1637,-0.1741,-0.177,-0.181,-0.1812,-0.1811,-0.1729,-0.178,-0.1644,-0.1607,-0.1713,-0.1711,-0.1705,-0.1702,-0.1732,-0.1731,-0.1731,-0.1731,0,-0.095,-0.1014,-0.108,-0.1194,-0.1222,-0.1282,-0.1371,-0.1412,-0.1536,-0.1612,-0.166,-0.1754,-0.1766,-0.178,-0.1769,-0.1711,-0.1669,-0.1626,-0.1774,-0.1743,-0.1534,-0.1532,-0.1504,-0.15,-0.1496,-0.1494,-0.1491,0,-0.0927,-0.0964,-0.108,-0.1095,-0.114,-0.1217,-0.1248,-0.1377,-0.1421,-0.1585,-0.1606,-0.1668,-0.1719,-0.1606,-0.1643,-0.1615,-0.1584,-0.1571,-0.1534,-0.1541,-0.1508,-0.1512,-0.1514,-0.1486,-0.1485,-0.1484,-0.1483,0,-0.0876,-0.0931,-0.0987,-0.1024,-0.1055,-0.109,-0.1163,-0.1185,-0.1351,-0.1453,-0.1513,-0.1538,-0.1532,-0.1526,-0.1504,-0.1486,-0.1587,-0.1536,-0.1542,-0.1507,-0.1519,-0.1491,-0.1497,-0.1472,-0.1473,-0.1475,-0.1475,0,-0.0821,-0.0845,-0.0909,-0.0927,-0.0958,-0.0969,-0.1022,-0.1075,-0.1137,-0.1344,-0.1354,-0.144,-0.1519,-0.1459,-0.1452,-0.1414,-0.1384,-0.1343,-0.1359,-0.1372,-0.1313,-0.1309,-0.117,0,0,0,0,0,-0.0758,-0.0768,-0.0788,-0.0813,-0.0841,-0.086,-0.0957,-0.1024,-0.1185,-0.1185,-0.1276,-0.1289,-0.1294,-0.1325,-0.1251,-0.1372,-0.1378,-0.1282,-0.1336,-0.1407,-0.1421,-0.1362,0,0,0,0,0,0,-0.0716,-0.0739,-0.0758,-0.07,-0.0695,-0.0718,-0.0782,-0.0897,-0.0911,-0.1082,-0.107,-0.1195,-0.1187,-0.1296,-0.1214,-0.1224,-0.123,-0.1333,-0.133,-0.14,-0.1412,-0.1423,-0.1367,0,0,0,0,0]},{"header":{"parameterUnit":"m.s-1","parameterCategory":2,"la1":30.2991,"la2":30.254,"lo1":-89.0895,"lo2":-89.0444,"dy":0.0017,"dx":0.0017,"nx":28,"ny":28,"refTime":"2023-10-20T03:00:00:Z","depth":"4","parameterNumber":3,"parameterNumberName":"V-component_of_CURRENTS"},"data":[0,0,0,0,0,0,0,0,0,0,0,0,0,0,0,0,0,0,0,0,0,0,0,0,0,0,0,0,0,0,0,0,0,0,0,0,0,0,0,0,0,0,0,0,0,0,0,0,0,0,0,0,0,0,0,0,0,0,-0.0139,-0.0139,0,-0.0132,-0.0133,-0.0133,-0.0103,-0.0102,-0.0101,-0.01,-0.0091,-0.0092,-0.0093,0,0,0,0,0,0,0,0,0,0,0,0,0,-0.0139,-0.0139,-0.0139,-0.0139,-0.0138,-0.0132,-0.0133,-0.0133,-0.0103,-0.0102,-0.0101,-0.01,-0.0091,-0.0092,-0.0093,0,0,0,0,0,0,0,0,0,0,0,0,0,-0.0139,-0.0139,-0.0139,-0.0121,-0.0119,-0.0132,-0.0133,-0.0133,-0.0103,-0.0102,-0.0101,-0.0099,-0.0091,-0.0092,-0.0093,-0.0128,0,0,-0.0096,-0.0096,0,0,0,0,0,0,0,0,-0.0139,-0.0139,-0.0124,-0.0122,-0.012,-0.0115,-0.0129,-0.013,-0.0104,-0.0112,-0.01,-0.0099,-0.0098,-0.0098,-0.0104,-0.0127,-0.0127,-0.0096,-0.0096,-0.0097,-0.0097,0,0,0,0,0,0,0,-0.0139,-0.0139,-0.0139,-0.0124,-0.0121,-0.0117,-0.0116,-0.0129,-0.0116,-0.0112,-0.0109,-0.0104,-0.0097,-0.0104,-0.0104,-0.0127,-0.0096,-0.0097,-0.0097,-0.0098,-0.0156,-0.0157,0,0,0,0,0,0,-0.0135,-0.0139,-0.014,-0.0139,-0.0123,-0.0118,-0.0117,-0.012,-0.0115,-0.0112,-0.0105,-0.0102,-0.0103,-0.0103,-0.0104,-0.0141,-0.0097,-0.0098,-0.0098,-0.0155,-0.0157,-0.0158,0,0,0,0,0,0,-0.0135,-0.0136,-0.014,-0.0136,-0.0136,-0.0119,-0.0124,-0.0121,-0.0117,-0.011,-0.0107,-0.0102,-0.0102,-0.0102,-0.0119,-0.014,-0.0098,-0.0099,-0.0154,-0.0156,-0.0157,-0.0218,0,0,0,0,0,0,-0.0136,-0.0136,-0.0138,-0.0136,-0.0136,-0.0155,-0.0125,-0.0121,-0.0115,-0.0111,-0.0107,-0.0105,-0.01,-0.0118,-0.012,-0.0141,-0.01,-0.0153,-0.0155,-0.0157,-0.0214,-0.0221,-0.0227,0,0,0,0,0,-0.0136,-0.0144,-0.0138,-0.0138,-0.0139,-0.0155,-0.0156,-0.014,-0.0116,-0.0129,-0.0122,-0.0105,-0.0131,-0.012,-0.0123,-0.0144,-0.0152,-0.0154,-0.0157,-0.0212,-0.022,-0.0226,0,0,0,0,0,0,-0.0146,-0.0141,-0.0135,-0.0141,-0.015,-0.0149,-0.0152,-0.0141,-0.0146,-0.0143,-0.0125,-0.0124,-0.0158,-0.0138,-0.0126,-0.0164,-0.0136,-0.0139,-0.0177,-0.0185,-0.0191,-0.0164,-0.0101,0,0,0,0,0,-0.015,-0.0158,-0.0155,-0.0166,-0.0164,-0.0158,-0.016,-0.016,-0.0161,-0.0161,-0.0151,-0.0148,-0.0172,-0.0165,-0.0188,-0.0201,-0.0156,-0.0212,-0.0218,-0.0224,-0.0203,-0.0189,-0.0191,-0.0165,-0.0165,-0.0165,0,0,-0.0163,-0.0157,-0.0165,-0.0169,-0.0169,-0.0182,-0.0157,-0.0172,-0.0182,-0.0162,-0.0167,-0.0185,-0.0187,-0.0218,-0.0226,-0.0195,-0.0203,-0.0226,-0.0231,-0.0207,-0.0191,-0.0193,-0.0195,-0.0166,-0.0166,-0.0166,0,0,-0.0194,-0.0182,-0.0199,-0.0206,-0.0211,-0.0207,-0.0209,-0.0211,-0.0206,-0.0227,-0.0223,-0.0247,-0.0254,-0.0265,-0.0271,-0.0319,-0.0257,-0.032,-0.0306,-0.0294,-0.0295,-0.0296,-0.0218,-0.0211,-0.0298,-0.0298,-0.0298,0,-0.0199,-0.0223,-0.021,-0.0226,-0.0229,-0.0214,-0.0236,-0.0237,-0.0246,-0.0243,-0.0235,-0.0268,-0.028,-0.031,-0.0322,-0.0335,-0.0283,-0.0282,-0.03,-0.0301,-0.03,-0.022,-0.0212,-0.0301,-0.0301,-0.03,-0.03,0,-0.0242,-0.0262,-0.0271,-0.0279,-0.0286,-0.0307,-0.03,-0.0303,-0.0289,-0.0286,-0.0316,-0.0337,-0.0338,-0.0361,-0.0351,-0.0361,-0.0309,-0.0332,-0.028,-0.0307,-0.022,-0.021,-0.0306,-0.0305,-0.0304,-0.0303,0,0,-0.0245,-0.029,-0.0293,-0.0317,-0.0316,-0.0333,-0.0336,-0.0338,-0.0336,-0.0345,-0.0339,-0.039,-0.0376,-0.038,-0.0384,-0.0364,-0.0325,-0.0327,-0.0325,-0.0243,-0.023,-0.0207,-0.0193,-0.0344,-0.0343,-0.0343,-0.016,0,-0.0277,-0.0327,-0.0333,-0.0383,-0.0406,-0.0392,-0.0394,-0.0397,-0.0384,-0.0372,-0.0378,-0.0393,-0.0389,-0.0396,-0.0376,-0.0353,-0.0305,-0.0368,-0.022,-0.0214,-0.0188,-0.0185,-0.0341,-0.0153,-0.0151,-0.0149,-0.0148,0,-0.0308,-0.034,-0.0393,-0.044,-0.0444,-0.0465,-0.0459,-0.0468,-0.0439,-0.0426,-0.0415,-0.04,-0.0376,-0.038,-0.03,-0.033,-0.0268,-0.0239,-0.0232,-0.0179,-0.0175,-0.0127,-0.013,-0.0131,-0.0133,-0.0134,-0.0135,0,-0.0323,-0.0381,-0.0427,-0.0442,-0.048,-0.0495,-0.0503,-0.0486,-0.049,-0.0453,-0.0439,-0.0402,-0.0381,-0.0318,-0.0233,-0.0256,-0.0123,-0.016,-0.0068,-0.0063,-0.011,-0.0111,-0.009,-0.0091,-0.0091,-0.0091,-0.0092,0,-0.0349,-0.0391,-0.0445,-0.0474,-0.0527,-0.0532,-0.0562,-0.0556,-0.0534,-0.0526,-0.047,-0.044,-0.0365,-0.0278,-0.0205,-0.0083,-0.0093,-0.0043,-0.0024,-0.0136,-0.0142,-0.0101,-0.0104,-0.0085,-0.0086,-0.0087,-0.0089,0,-0.0372,-0.0402,-0.047,-0.0523,-0.0545,-0.0583,-0.0616,-0.0624,-0.0593,-0.0573,-0.0557,-0.0453,-0.0324,-0.0225,-0.01,-0.0049,0.0051,0.0097,0.0035,0.0044,0.011,0.0101,0.0225,0.0227,0.0229,0.023,0.0232,0,-0.0389,-0.0426,-0.0512,-0.0554,-0.0588,-0.0638,-0.0662,-0.0658,-0.0657,-0.0575,-0.0558,-0.0422,-0.0338,-0.0108,-0.0022,0.0153,0.0148,0.0222,0.011,0.0132,0.0139,0.0127,0.0116,0.0234,0.0235,0.0235,0.0236,0,-0.0425,-0.0455,-0.051,-0.0593,-0.0645,-0.0695,-0.0726,-0.0732,-0.0694,-0.0666,-0.0527,-0.0394,-0.0232,-0.0078,0.0069,0.0172,0.0175,0.0241,0.0236,0.0132,0.0145,0.0147,0.0134,0.0242,0.0241,0.0241,0.024,0,-0.0441,-0.0487,-0.0552,-0.0622,-0.0686,-0.0723,-0.0748,-0.0716,-0.0703,-0.0608,-0.0549,-0.0367,-0.0256,-0.0063,0.0064,0.0179,0.018,0.0183,0.0181,0.0175,0.0078,0.0082,0.0197,0,0,0,0,0,-0.0449,-0.0498,-0.0572,-0.0646,-0.0704,-0.0737,-0.0768,-0.0772,-0.0739,-0.064,-0.0592,-0.0429,-0.0197,-0.0091,0.003,0.0056,0.017,0.0197,0.0164,0.0277,0.027,0.0161,0,0,0,0,0,0,-0.0454,-0.0528,-0.0569,-0.0638,-0.0685,-0.0741,-0.0764,-0.0748,-0.0689,-0.0629,-0.05,-0.0409,-0.019,-0.0256,0.0036,0.0072,0.0062,0.0311,0.0313,0.0281,0.0275,0.0269,0.0155,0,0,0,0,0]}]]